Regional Weather Roundup
Issued by NWS

Home | Current Version | Previous Version | Graphics & Text | Print | Product List | Glossary On
Versions: 1 2 3 4 5 6 7 8 9 10 11 12 13 14 15 16 17 18 19 20 21 22 23 24 25 26 27
000
ASUS45 KSLC 241410
RWRUT

UTAH REGIONAL WEATHER ROUNDUP
NATIONAL WEATHER SERVICE SALT LAKE CITY UT
800 AM MDT FRI OCT 24 2014

UTZ001>011-023>025-241500-

NORTHERN UTAH

CITY           SKY/WX    TMP DP  RH WIND       PRES   REMARKS
BRIGHAM CITY   CLEAR     40  35  82 CALM      30.16R
HILL AFB       CLEAR     51  31  45 E7        30.16R
LOGAN          CLEAR     34  30  85 CALM      30.17R
OGDEN          CLEAR     47  32  56 S7        30.15R
PROVO AIRPORT  CLEAR     45  28  53 CALM      30.19R
SALT LAKE CITY PTCLDY    44  39  82 CALM      30.15R
VERNAL         PTCLDY    37  32  82 W5        30.27R WCI  33
WENDOVER       PTCLDY    39  28  65 NE6       30.16R WCI  35
HEBER CITY     CLEAR     36  28  75 CALM      30.23R
WEST JORDAN    CLEAR     52  37  58 S6        30.17R

$$

UTZ012>022-026-027-241500-

SOUTHERN/CENTRAL UTAH

CITY           SKY/WX    TMP DP  RH WIND       PRES   REMARKS
BLANDING       PTCLDY    44  31  58 N5        30.40R
BRYCE CANYON   PTCLDY    26  23  88 SW5       30.40R WCI  20
CEDAR CITY     PTCLDY    40  31  70 CALM      30.25R
DELTA          CLEAR     46  29  50 SW12      30.18R
HANKSVILLE       N/A     36  28  75 CALM      30.27R
MILFORD        CLEAR     45  30  55 SW13      30.22R
MOAB/CYNLANDS  CLEAR     45  34  65 CALM      30.24R
PRICE          CLEAR     42  32  67 NE6       30.29R
ST GEORGE      SUNNY     52  30  43 CALM      30.20R

$$

REGIONAL REPORTS     COLORADO/ARIZONA

CITY           SKY/WX    TMP DP  RH WIND       PRES   REMARKS
CRAIG, CO      CLEAR     28  25  88 CALM      30.31R
GRAND JUNCTION CLEAR     41  35  79 SE6       30.28R
RIFLE          CLEAR     36  32  85 CALM      30.34R
MONTROSE       CLEAR     40  29  64 S9        30.36R WCI  34
CORTEZ         CLEAR     33  28  81 NE7       30.36R WCI  27
PAGE, AZ       CLEAR     52  33  48 CALM      30.24R
GRAND CANYON   PTCLDY    28  24  85 CALM      30.36R
KINGMAN        CLEAR     57  37  47 VRB3      30.15R
FLAGSTAFF      PTCLDY    33  30  88 CALM      30.38R

$$

REGIONAL REPORTS    NEVADA/IDAHO/WYOMING

CITY           SKY/WX    TMP DP  RH WIND       PRES   REMARKS
LAS VEGAS, NV  CLEAR     62  36  37 S8        30.04R
ELY            CLEAR     50  27  40 S14       30.24R
ELKO           PTCLDY    30  17  58 CALM      30.15R
POCATELLO, ID  PTCLDY    44  37  76 E6        30.15S
BURLEY         CLOUDY    44  37  76 CALM      30.12S
EVANSTON, WY   CLEAR     46  22  38 SW12      30.25R
ROCK SPRINGS   PTCLDY    43  25  49 S7        30.24R
KEMMERER       PTCLDY    41  25  52 SW5       30.25S

$$



USA.gov is the U.S. government's official web portal to all federal, state and local government web resources and services.